Satellite-Ground Cal/Val Site Overpasses Predictions

Prediction of Satellite NPP Overpassing Cal/Val Site: Antarctic Dome C

Ground Cal/Val Site Location: Latitude: -75.10, Longitude: 123.35; Satellite-Ground Site NADIR distance within 100 km.

Table of predicted overpasses for the next 14.0 days since TLE Epoch: 2/24/2017
Interval Starting Time Ending Time Minimum Distance Time Minimum Distance (km)
1 02/25/2017 14:48:39 02/25/2017 14:49:08 02/25/2017 14:48:54 15.17
2 02/27/2017 07:31:27 02/27/2017 07:31:57 02/27/2017 07:31:42 0.65
3 03/02/2017 14:54:52 03/02/2017 14:55:20 03/02/2017 14:55:06 21.10
4 03/03/2017 14:36:10 03/03/2017 14:36:24 03/03/2017 14:36:17 85.94
5 03/04/2017 07:37:42 03/04/2017 07:38:09 03/04/2017 07:37:55 36.19
6 03/05/2017 07:18:55 03/05/2017 07:19:14 03/05/2017 07:19:04 74.00
7 03/07/2017 15:01:08 03/07/2017 15:01:31 03/07/2017 15:01:20 57.94
8 03/08/2017 14:42:16 03/08/2017 14:42:41 03/08/2017 14:42:29 51.34
9 03/09/2017 07:43:57 03/09/2017 07:44:18 03/09/2017 07:44:07 71.08
